Regional Weather Roundup
Issued by NWS

Home | Current Version | Previous Version | Text Only | Print | Product List | Glossary Off
Versions: 1 2 3 4 5 6 7 8 9 10 11 12 13 14 15 16 17 18 19 20 21 22 23 24 25 26 27

000
ASUS45 KBOU 221707
RWRCO

WEATHER ROUNDUP FOR COLORADO
NATIONAL WEATHER SERVICE DENVER/BOULDER CO
1100 AM MDT WED MAR 22 2017

NOTE: "FAIR" INDICATES FEW OR NO CLOUDS BELOW 12000 FEET WITH NO
SIGNIFICANT WEATHER AND/OR OBSTRUCTIONS TO VISIBILITY.

COZ001>005-013-030-031-221800-
...NORTHWEST COLORADO...

CITY           SKY/WX    TMP DP  RH WIND       PRES   REMARKS
CRAIG          CLOUDY    64  24  21 SW16G26   30.00F
HAYDEN         FAIR      63  21  20 SW21G31   30.02F
MEEKER         PTSUNNY   60  24  25 SW13G25   30.02S
MOUNT WERNER   NOT AVBL
STEAMBOAT SPGS PTSUNNY   49  34  55 E5        30.05S
WALDEN         NOT AVBL
$$

COZ006>008-011-221800-
...WEST CENTRAL VALLEYS...

CITY           SKY/WX    TMP DP  RH WIND       PRES   REMARKS
GRAND JUNCTION FAIR      66  26  22 SE9       29.98S
MONTROSE       FAIR      61  26  26 NE5       30.06R
EAGLE          MOSUNNY   55  30  38 CALM      30.09F
RIFLE          FAIR      57  34  41 E5        30.03R
DELTA          FAIR      62  30  30 E6        30.03F
NUCLA          FAIR      63  21  20 SW9G20    30.09F
$$

COZ017>023-064>068-221800-
...SOUTHWEST COLORADO...

CITY           SKY/WX    TMP DP  RH WIND       PRES   REMARKS
DURANGO        FAIR      51  32  48 E5        30.17F
CORTEZ         FAIR      62  29  28 SE17      30.09F
PAGOSA SPRINGS FAIR      53  26  34 CALM      30.24R
TELLURIDE      FAIR      52  20  28 SE7G20    30.22S
WOLF CREEK PAS CLOUDY    34  21  60 S18G29    30.41R WCI  23
$$

COZ009-010-012-014-032>034-037-058>063-221800-
...CENTRAL COLORADO...

CITY           SKY/WX    TMP DP  RH WIND       PRES   REMARKS
ASPEN          PTSUNNY   58  13  17 S22G33    30.13R
BUENA VISTA    FAIR      54  28  37 SE3       30.15F
COPPER MTN     FAIR      41  10  28 W10G23    30.31R
BERTHOUD PASS  FAIR      36  27  69 W22G32    30.31S
COTTONWOOD PAS FAIR      52  28  40 S5        30.23S
GUNNISON       FAIR      41  32  70 SE3       30.19F
KREMMLING      FAIR      59  27  29 CALM      30.11F
LEADVILLE      FAIR      45  21  38 S12G22    30.21S
MONARCH PASS   PTSUNNY   37  19  48 SW21G26   30.43S
SALIDA         FAIR      62  22  21 S13       30.21S
SUNLIGHT       CLOUDY    39  21  48 SW12G26   30.27R
WILKERSON PASS FAIR      43  21  42 SW15G24   30.28F
$$

COZ069>075-221800-
...SAN LUIS VALLEY/SANGRE DE CRISTO MOUNTAINS...

CITY           SKY/WX    TMP DP  RH WIND       PRES   REMARKS
ALAMOSA        FAIR      63  23  21 S16       30.14F
LA VETA PASS   NOT AVBL
SAGUACHE       FAIR      54  27  35 SE7       30.19S
$$

COZ035-036-038>040-221800-
...NORTHERN COLORADO FRONT RANGE...

CITY           SKY/WX    TMP DP  RH WIND       PRES   REMARKS
DENVER INTL AP PTSUNNY   50  33  52 NW5       30.00F
DMNS CITY PARK   N/A     51  33  51 NE5G14    29.99F
AURORA         PTSUNNY   53  34  48 N7        30.00F
FRONT RANGE AP MOSUNNY   55  36  47 CALM      30.00F
ERIE MUNI ARPT FAIR      46  32  58 N5        30.00F
BOULDER MUN AP FAIR      46  34  61 SE3       30.00F
CENTENNIAL     PTSUNNY   59  33  37 NE6       29.98F
BROOMFIELD     PTSUNNY   46  34  61 N5        30.01F
FORT COLLINS   FAIR      46  32  58 N9        30.01F
LONGMONT       FAIR      51  35  53 CALM      30.01F
$$

COZ041-046-047-076>085-087-088-221800-
...PIKES PEAK/PALMER DIVIDE AND SOUTHERN FOOTHILLS...

CITY           SKY/WX    TMP DP  RH WIND       PRES   REMARKS
COLO. SPRINGS  FAIR      47  31  53 VRB5      30.09F
A. F. ACADEMY  FAIR      48  31  51 SE10      30.06F
SCHRIEVER AFB  FAIR      46  33  61 SE12G18   30.09F
ELLICOTT         N/A    N/A N/A N/A S10       30.07F
FALCON         FAIR      48  32  54 S9        30.10F
FORT CARSON    FAIR      46  30  54 SE5       30.07F
LIMON          FAIR      49  36  61 S18       30.06F
MONUMENT HILL  FAIR      55  32  41 E12       30.07F
TRINIDAD       FAIR      56  36  47 E7        30.07F
$$

COZ042>045-048>051-090-091-221800-
...NORTHEAST COLORADO...

CITY           SKY/WX    TMP DP  RH WIND       PRES   REMARKS
GREELEY ARPT   FAIR      47  34  60 E6        30.01F
AKRON          FAIR      52  32  46 S20G28    30.04F
BURLINGTON     FAIR      47  35  63 S23G32    30.12F
WRAY           NOT AVBL
STERLING       FAIR      52  32  46 S15       30.03F
HOLYOKE        FAIR      48  34  57 S26G32    30.10F
FORT MORGAN    FAIR      53  32  45 S12       30.03F
$$

COZ086-089-092>099-221800-
...SOUTHEAST COLORADO...

CITY           SKY/WX    TMP DP  RH WIND       PRES   REMARKS
PUEBLO         FAIR      50  32  50 SE5       30.07F
LA JUNTA       FAIR      51  34  52 S6        30.09F
LAMAR          FAIR      54  36  50 S16       30.11F
SPRINGFIELD      N/A     50  36  58 S22       30.14F
$$




USA.gov is the U.S. government's official web portal to all federal, state and local government web resources and services.